Powrót do katalogu

FENGYUN 1C DEB

AktywnySSO
NORAD 30138·DEBRIS·🇨🇳 China

Wystrzelony May 10, 1999 z Taiyuan Satellite Launch Center

Loading…

Następne Przeloty (najbliższe 24 godziny)

TLE

ŚwieżeSource: Space-Track

Epoka: Sep 13, 2026, 22:50 UTC

1 30138U 99025ST  26256.95160498  .00001115  00000-0  53460-3 0  9992
2 30138  98.7340 312.1884 0021131  69.4656 106.1436 14.20855116 13085

Śledź FENGYUN 1C DEB w czasie rzeczywistym z AllMySat

Download on the App Store